Location: Bouillancy
(49.1149°N, 2.9308°E)
Time: 23:17:50
(UTC+00:00)

H-2A R/B - Pass Details

Date: 30 September 2020
Orbit: 734 x 836 km, 98.2° (Epoch: 25 October)

Event Time Altitude Azimuth Distance (km) Brightness Sun altitude
Rises 18:00:40 0° 142° (SE) 3,214 4.8 -6.1°
Reaches altitude 10° 18:03:02 10° 135° (SE) 2,307 4.1 -6.5°
Maximum altitude 18:07:47 41° 66° (ENE) 1,121 2.5 -7.3°
Drops below altitude 10° 18:12:42 10° 358° (N) 2,385 4.7 -8.1°
Sets 18:15:10 0° 351° (N) 3,336 5.5 -8.5°
